Location: SE Lincoln, NE
(40.7805°N, 96.6275°W)
Time: 07:39:09
(UTC-05:00)

Helios 1A Rocket - Pass Details

Date: 15 May 2021
Orbit: 562 x 586 km, 98.3° (Epoch: 20 June)

Event Time Altitude Azimuth Distance (km) Brightness Sun altitude
Rises 21:14:50 0° 178° (S) 2,795 6.1 -7.0°
Reaches altitude 10° 21:17:01 10° 183° (S) 1,901 5.3 -7.3°
Maximum altitude 21:21:02 50° 260° (W) 747 3.8 -8.0°
Drops below altitude 10° 21:25:05 10° 336° (NNW) 1,916 6.6 -8.6°
Sets 21:27:18 0° 342° (NNW) 2,820 7.4 -8.9°
